SUOMI-100 (43804 NORAD) Tracking and Keplerian Element Data

This shows tracking and keplerian element data for the satellite.

Feedback or suggestion? Click here.




ElementValue
Catalog43804
NameSUOMI-100
Epoch Orbit20829
Epoch Day270.13919298
Epoch Year2022
RAAN334.4857
Inclination97.6106
Eccentricity0.0012732
Argument of Perigee288.5184
Mean Anonmoly71.4654
Mean Motion14.97414708
Decay Rate3.575E-05
L11 43804U 18099AY 22270.13919298 .00003575 00000+0 31187-3 0 9993
L22 43804 97.6106 334.4857 0012732 288.5184 71.4654 14.97414708208298

Live tracking and technical data element details for SUOMI-100 (NORAD 43804). SUOMI-100 can be tracked NOW for your location showing map with azimuth and elevation plus other details from your city location.

Track the satellite on the map from your city or location and see movement details for azimuth, elevation, latitude, longitude, range, height, and movement on the map or in text.







IsCatalogInMostPopularTable: catalog: 43804, numindb: 979
Update: records affected: 1



GetName: 43804 SUOMI-100

Hit Count: updated at: Fri, 30 Sep 2022 02:28:24 GMT